Lid_Strength_Index
3 2 2 2 2 2 2 2 2 2 2 2 2 2 2 3 4 4 4 1 -0 -1 -2 -3 -3 -3 -3 -3 -3 -2 -2 -2 -2 -1 -2 -1 -1 -1 -1 -1 -1 -1 -1
2 2 2 2 3 2 2 3 3 3 3 3 3 3 3 3 3 4 4 4 1 -0 -1 -2 -2 -3 -3 -3 -3 -3 -2 -2 -2 -2 -2 -1 -1 -1 -1 -1 -1 -1 -1
2 3 3 4 3 3 4 4 4 4 5 4 4 4 3 4 3 4 4 4 4 2 0 -1 -2 -2 -3 -3 -3 -3 -2 -2 -2 -2 -2 -2 -1 -1 -1 -1 -1 -1 -1
4 5 5 5 4 4 4 4 4 5 5 5 5 5 5 4 4 3 3 4 4 4 3 2 1 -0 -1 -2 -2 -3 -3 -2 -2 -2 -2 -2 -2 -1 -1 -1 -1 -1 -1
4 5 5 5 4 4 5 5 5 5 6 6 5 6 5 5 5 4 5 4 4 4 4 4 3 3 1 -0 -1 -2 -2 -3 -3 -2 -2 -2 -2 -2 -1 -1 -1 -1 -1
3 4 4 4 4 5 6 6 6 6 6 6 5 5 6 5 6 6 6 5 5 5 6 6 6 5 3 1 0 -1 -2 -2 -3 -3 -3 -2 -2 -2 -2 -1 -1 -1 -1
5 5 5 5 5 6 6 6 6 6 6 6 7 6 7 7 6 7 7 6 7 6 7 6 6 5 5 3 2 0 -1 -2 -2 -3 -3 -2 -2 -2 -2 -2 -2 -1 -1
5 5 6 6 6 6 6 7 6 7 6 6 7 8 9 8 7 6 7 7 8 7 7 7 6 7 7 5 3 2 1 0 -1 -2 -2 -2 -2 -2 -2 -2 -2 -1 -1
5 5 6 6 6 6 7 7 7 7 8 7 7 7 9 10 9 7 7 8 8 8 8 7 6 7 6 5 3 3 2 2 2 0 -1 -2 -2 -2 -2 -2 -1 -2 -1
5 5 6 6 6 7 7 7 7 8 8 8 7 5 7 6 8 10 9 8 8 8 8 8 7 7 6 4 3 3 2 3 2 1 0 -0 -2 -2 -2 -1 -1 -1 -1
5 6 6 6 6 7 7 8 8 8 7 7 6 6 6 6 7 8 10 10 8 8 7 7 7 7 6 5 4 3 2 2 2 2 1 0 -1 -2 -2 -1 -0 -1 -1
6 5 6 7 7 7 8 8 7 7 7 6 6 5 6 6 6 7 7 7 8 7 7 7 7 7 6 5 3 3 2 3 3 2 1 1 -0 -1 -1 -1 -1 -1 -1
7 8 8 8 8 7 7 7 7 7 7 7 7 6 5 5 5 4 5 6 6 6 5 6 5 5 5 5 5 3 2 3 3 3 2 1 1 0 -1 -1 -1 -1 -1
8 8 8 7 7 7 7 7 7 7 6 6 6 6 5 5 4 4 4 6 7 7 5 4 3 3 4 4 3 2 3 3 3 3 4 3 1 2 2 1 0 -0 -1
7 8 8 7 7 7 6 6 6 5 5 5 5 5 6 5 5 4 4 3 5 8 9 7 6 4 3 3 3 4 3 1 2 3 4 4 3 2 2 2 2 1 1
7 7 7 6 6 5 5 5 5 5 5 5 5 7 7 6 6 6 7 6 6 6 8 6 6 5 4 4 3 4 4 1 1 2 3 3 3 3 1 2 3 3 3
8 7 6 6 5 5 6 6 5 5 6 6 7 7 7 7 7 8 7 7 7 7 8 7 5 5 5 6 5 5 4 5 2 1 2 2 3 3 3 2 2 4 4
7 7 6 5 5 5 5 5 5 6 7 7 7 8 8 7 8 8 8 8 8 7 8 9 8 7 7 6 6 6 4 4 5 2 1 2 3 3 2 3 3 4 5
8 6 5 5 5 5 4 5 6 7 7 7 7 8 8 8 9 9 9 8 8 7 7 8 8 7 7 7 7 7 6 6 5 4 2 2 2 3 2 2 3 3 5
6 6 4 4 4 4 5 6 7 7 7 7 7 7 8 8 9 9 8 8 7 7 6 6 7 8 7 7 7 8 9 8 8 7 5 4 3 3 2 2 3 4 4
5 3 5 4 5 5 6 7 6 7 8 8 8 7 7 7 5 7 7 8 8 8 6 6 6 7 8 9 9 8 9 10 9 9 7 6 6 6 4 4 4 4 4
4 5 4 6 7 5 4 4 5 7 7 8 9 8 8 7 7 7 6 6 6 7 7 7 7 7 7 9 9 9 9 11 12 9 9 9 7 8 7 6 4 4 4
3 5 7 7 7 7 4 4 5 7 8 9 9 9 9 8 8 8 7 6 6 5 5 6 7 7 7 7 8 9 10 11 11 9 10 11 11 9 7 7 6 4 4
6 7 7 7 7 7 6 6 7 9 10 9 9 9 9 9 8 8 7 7 6 6 5 5 5 6 6 6 7 8 8 9 9 9 9 10 13 11 11 9 6 5 4
7 7 7 8 9 9 7 7 8 10 10 10 9 9 9 9 8 6 7 7 7 6 5 4 4 4 4 4 4 7 7 8 10 9 10 11 12 12 12 12 9 5 5
6 7 8 9 8 10 8 8 8 11 14 10 10 9 9 8 7 7 8 8 9 7 6 7 7 6 6 6 6 7 9 10 11 13 10 11 11 12 15 13 12 11 10